Flag for New Zealand Weather past 2 weeks in Wellington, New Zealand

Now
55 °F

Overcast.


Feels Like: 52 °F
Forecast: 45 / 55 °F
Wind: 14 mph from South

Location: Wellington Airport

Current Time: Sep 17, 2014 at 2:18:01 PM

Latest Report: Sep 17, 2014 at 1:30 PM


Visibility: N/A

Pressure: 29.80 "Hg

Humidity: 72%

Dew point: 46 °F

Location of WellingtonLocation

Historic Weather in Wellington — Graph

°F

Wellington temperature yesterday

Maximum temperature yesterday: 59 °F (at 11:00 AM)
Minimum temperature yesterday: 54 °F (at 4:00 AM)
Average temperature yesterday: 56 °F

Past Weeks' High & Low Weather Summary

 TemperatureHumidityPressure
High66 °F (Sep 3, 1:30 PM)100% (Sep 6, 4:30 AM)30.39 "Hg (Sep 6, 4:30 AM)
Low45 °F (Sep 15, 2:00 AM)48% (Sep 17, 9:30 AM)29.53 "Hg (Sep 16, 3:30 AM)
Average54 °F79%29.95 "Hg
* Reported Sep 2 1:00 PM — Sep 17 1:00 PM, Wellington, Weather by CustomWeather, © 2014

Note: Actual official high and low records may vary slightly from our data, if they occured in-between our weather recording intervals... More about our weather records

Advertising

Wellington weather history for previous 24 hours

 ConditionsComfort  
Time TempWeatherWind HumidityBarometerVisibility
1:00 PM
Sep 17
55 °FCool.15 mph67%29.80 "HgN/A
12:30 PM55 °FCool.15 mph63%29.80 "HgN/A
12:00 PM57 °FCool.14 mph63%29.80 "HgN/A
11:30 AM55 °FCool.16 mph67%29.77 "HgN/A
11:00 AM57 °FRefreshingly cool.8 mph55%29.77 "HgN/A
10:30 AM57 °FRefreshingly cool.7 mph51%29.77 "HgN/A
10:00 AM57 °FPassing clouds.6 mph51%29.74 "HgN/A
9:30 AM57 °FRefreshingly cool.6 mph48%29.74 "HgN/A
9:00 AM57 °FRefreshingly cool.7 mph51%29.74 "HgN/A
8:30 AM55 °FRefreshingly cool.8 mph59%29.71 "HgN/A
8:00 AM54 °FCool.5 mph58%29.71 "HgN/A
7:30 AM52 °FCool.7 mph62%29.71 "HgN/A
7:00 AM50 °FCool.7 mph62%29.68 "HgN/A
6:30 AM48 °FCool.7 mph66%29.68 "HgN/A
6:00 AM48 °FCool.7 mph66%29.68 "HgN/A
5:30 AM50 °FCool.3 mph67%29.65 "HgN/A
5:00 AM46 °FCool.6 mph66%29.65 "HgN/A
4:30 AM50 °FCool.5 mph62%29.65 "HgN/A
4:00 AM52 °FCool.5 mph58%29.62 "HgN/A
3:30 AM54 °FCool.8 mph54%29.62 "HgN/A
3:00 AM54 °FCool.8 mph54%29.62 "HgN/A
2:30 AM54 °FCool.7 mph54%29.62 "HgN/A
2:00 AM54 °FCool.12 mph63%29.59 "HgN/A
1:30 AM54 °FCool.15 mph63%29.59 "HgN/A
1:00 AM54 °FCool.9 mph63%29.59 "HgN/A
12:30 AM54 °FCool.10 mph63%29.59 "HgN/A
12:00 AM54 °FCool.8 mph67%29.59 "HgN/A
11:30 PM
Sep 16
54 °FCool.13 mph67%29.59 "HgN/A
11:00 PM54 °FCool.10 mph67%29.59 "HgN/A
10:30 PM54 °FPassing clouds.9 mph67%29.59 "HgN/A
10:00 PM54 °FPassing clouds.12 mph67%29.59 "HgN/A
9:30 PM54 °FPassing clouds.12 mph67%29.59 "HgN/A
9:00 PM54 °FCool.12 mph67%29.59 "HgN/A
8:30 PM55 °FCool.13 mph63%29.56 "HgN/A
8:00 PM55 °FCool.12 mph63%29.56 "HgN/A
7:30 PM55 °FCool.17 mph63%29.53 "HgN/A
7:00 PM55 °FCool.18 mph67%29.56 "HgN/A
6:30 PM55 °FPassing clouds.20 mph67%29.56 "HgN/A
6:00 PM55 °FPassing clouds.20 mph67%29.53 "HgN/A
5:30 PM55 °FCool.18 mph67%29.53 "HgN/A
5:00 PM55 °FCool.20 mph67%29.53 "HgN/A
4:30 PM57 °FPassing clouds.22 mph63%29.53 "HgN/A
4:00 PM55 °FScattered clouds.21 mph67%29.56 "HgN/A
3:30 PM57 °FPassing clouds.21 mph63%29.56 "HgN/A
3:00 PM57 °FPassing clouds.21 mph63%29.56 "HgN/A
2:30 PM57 °FPassing clouds.28 mph59%29.56 "HgN/A
2:00 PM59 °FPassing clouds.23 mph55%29.56 "HgN/A
Weather by CustomWeather, © 2014

See weather overviewHow to use our weather pages